Temperature
12 12 12 12 12 12 12 12 12 12 12 12 12 12 12 12 12 12 12 12 12 12 11 11 11 11 11 11 11 11 11 11 11 11 12 12 12 12 12 12 12 12 12
12 12 12 12 12 12 11 11 11 11 11 11 11 11 11 11 11 11 11 11 11 11 11 11 11 11 11 11 11 11 11 11 11 11 11 11 11 11 11 11 11 11 11
12 11 11 11 11 11 11 11 11 11 10 10 10 10 10 10 10 10 10 10 10 10 10 10 10 10 10 10 10 10 10 10 10 10 10 10 10 10 11 11 11 11 11
11 11 11 11 11 11 11 10 10 10 10 10 10 10 10 10 10 10 10 10 10 10 10 9 9 9 9 9 9 9 9 9 9 9 9 10 10 10 10 10 10 10 10
11 11 11 10 10 10 10 10 9 9 9 9 9 9 9 9 9 9 9 9 9 9 9 9 9 9 9 9 9 9 8 9 9 9 9 9 9 9 9 9 10 10 10
10 10 10 10 10 10 9 9 9 9 8 8 8 8 8 8 8 8 8 8 8 8 8 8 8 8 8 8 8 8 8 8 8 8 8 8 8 8 8 9 9 9 9
10 10 10 9 9 9 9 9 8 8 8 8 8 7 8 8 8 8 8 8 7 7 8 7 7 7 7 7 7 7 7 7 7 7 7 7 7 7 8 8 8 8 9
9 9 9 9 9 9 9 8 8 8 7 7 7 6 6 6 7 7 7 7 7 7 7 7 7 7 7 7 7 7 6 6 6 6 6 7 7 7 7 7 7 8 8
9 9 8 8 8 8 8 8 7 7 7 7 6 6 5 5 5 6 6 6 6 6 6 6 6 6 6 6 6 6 6 6 6 6 6 6 6 6 6 7 7 7 7
8 8 8 8 8 7 7 7 7 6 6 6 6 5 5 5 5 5 5 5 5 5 6 6 6 6 6 6 6 6 6 5 5 5 5 6 6 6 6 6 6 7 7
8 8 8 7 7 7 7 7 6 6 6 5 5 5 5 5 4 4 4 5 5 5 5 5 5 5 5 5 5 5 5 5 5 5 5 5 5 5 5 6 6 6 6
8 7 7 7 7 6 6 6 6 6 5 5 5 5 4 4 4 4 4 4 4 4 5 5 5 5 5 5 5 5 5 5 5 5 5 4 4 5 5 5 5 6 6
7 7 7 6 6 6 6 6 5 5 5 5 4 4 4 4 4 3 3 3 3 4 4 4 4 4 4 4 4 4 4 4 4 4 4 4 4 4 4 5 5 5 5
6 6 6 6 6 6 5 5 5 5 4 4 4 4 4 4 3 3 3 3 2 3 3 4 4 4 4 4 4 4 4 4 4 4 4 4 4 4 4 5 5 5 5
6 6 6 6 5 5 5 5 4 4 4 4 4 4 3 3 3 3 3 2 2 2 3 3 3 4 3 3 3 3 3 3 3 3 3 4 4 4 4 4 5 5 5
6 5 5 5 5 5 4 4 4 4 4 4 3 3 3 3 3 3 3 2 2 2 2 3 3 3 3 3 3 3 3 3 3 3 3 3 4 4 4 4 4 5 5
5 5 5 4 4 4 4 4 4 3 3 3 3 3 3 3 3 3 2 2 2 2 1 2 2 2 2 2 2 2 2 2 3 3 3 3 3 4 4 4 4 5 5
5 4 4 4 4 4 4 3 3 3 3 3 3 2 2 2 2 2 2 2 2 2 1 1 2 2 2 2 2 2 2 2 2 2 3 3 3 3 4 4 4 5 5
4 4 4 3 3 3 3 3 3 3 2 2 2 2 2 2 2 2 2 2 2 1 1 1 1 2 2 2 2 2 2 2 2 2 2 3 3 3 4 4 4 4 4
4 3 3 3 3 2 2 2 2 2 2 2 2 2 2 2 2 2 2 2 1 1 1 1 1 1 1 1 1 1 2 2 2 2 2 3 3 3 3 4 4 4 4
3 3 2 2 2 2 2 2 2 2 2 2 2 2 2 2 2 2 1 1 1 1 1 1 1 1 1 1 1 1 1 1 2 2 2 2 2 3 3 3 3 3 3
3 2 2 2 2 1 1 1 1 1 1 1 2 2 2 2 2 1 1 1 1 1 1 1 1 1 1 1 1 1 1 1 1 1 1 2 2 2 2 2 3 3 3
2 2 1 1 1 1 1 1 1 1 1 1 1 1 1 1 1 1 1 1 1 1 1 1 1 1 1 1 1 1 1 1 1 1 1 1 2 2 2 2 2 2 2
1 1 1 1 1 1 1 1 1 0 0 1 1 1 1 1 1 1 1 0 0 1 1 1 1 1 1 1 1 1 1 1 1 1 1 1 1 1 2 2 2 2 2
1 1 1 1 1 1 1 0 0 0 0 0 1 1 1 1 1 0 0 0 0 0 1 0 0 0 1 1 1 1 1 1 0 1 1 1 1 1 2 2 1 1 1
0 0 0 0 0 0 0 0 -0 -0 -0 -0 -0 0 0 0 -0 -0 -0 -0 -0 0 0 0 0 0 0 1 1 1 1 0 0 0 1 0 1 1 1 1 1 1 1
Wind_Speed
2 2 2 3 4 4 3 3 3 3 3 3 3 3 3 4 4 3 3 5 7 8 9 10 10 11 11 11 11 12 12 12 12 12 12 13 13 14 14 15 16 16 17
3 2 2 2 3 4 4 3 3 2 2 2 2 3 3 4 4 4 4 5 7 8 10 10 11 11 12 13 13 13 13 13 14 14 14 14 14 15 15 16 17 17 18
4 3 1 1 2 4 4 4 3 3 2 3 3 3 3 3 4 4 5 5 6 8 10 11 11 12 13 14 14 14 15 15 15 15 15 16 16 16 17 17 18 18 19
3 3 1 1 3 3 3 2 2 2 3 3 3 4 3 3 4 4 4 5 5 6 8 10 12 13 14 15 15 15 15 15 15 15 15 16 17 18 18 19 19 19 20
3 2 1 2 3 2 2 2 2 2 3 3 4 4 3 4 5 5 4 5 5 6 6 9 11 13 14 15 16 16 16 16 16 16 16 17 17 18 18 19 20 20 21
2 2 1 2 3 1 2 2 3 3 3 3 5 5 4 5 5 5 5 4 4 6 6 8 8 10 14 15 16 16 17 17 18 18 18 18 18 18 19 20 20 20 21
2 2 1 1 2 1 2 2 2 3 3 3 3 5 5 5 5 4 4 4 5 6 7 8 8 8 9 14 16 17 18 19 19 19 20 20 20 20 20 21 21 21 21
1 1 0 1 1 2 3 2 2 2 3 3 2 4 4 4 3 5 4 5 5 5 6 7 7 7 8 8 12 17 18 20 20 21 21 21 21 21 21 22 22 22 22
0 1 1 1 2 2 2 3 2 3 3 3 2 1 2 5 6 4 4 5 5 5 5 5 7 8 10 8 9 13 17 20 21 22 22 22 22 22 22 22 22 23 23
1 1 1 1 2 2 3 3 3 3 3 4 3 2 4 5 5 7 5 4 6 7 6 7 7 8 10 9 11 15 18 20 21 22 23 23 23 23 23 23 23 23 22
1 2 2 2 2 3 3 4 4 4 3 4 4 4 4 5 5 7 10 8 6 6 6 7 7 8 9 9 9 12 17 19 21 22 22 23 23 24 24 24 23 23 22
2 2 2 2 3 3 3 4 4 5 5 5 5 4 4 5 5 6 9 10 9 7 7 6 6 7 8 8 10 14 17 19 21 21 22 23 23 24 25 25 23 22 22
2 3 3 3 3 4 4 5 5 6 6 6 6 5 5 6 5 6 8 10 11 9 6 5 5 6 8 7 9 14 16 18 20 21 21 22 23 24 25 23 22 22 22
2 3 3 4 4 5 5 5 5 6 6 6 7 7 6 6 6 6 6 8 11 10 7 7 5 5 6 8 10 13 12 18 19 20 22 22 22 23 22 21 21 22 22
2 3 4 5 5 5 6 5 5 6 6 7 7 7 7 7 6 6 6 6 7 11 12 7 5 5 6 7 10 9 10 16 19 20 21 20 20 20 20 21 21 22 21
3 3 4 5 5 6 6 6 6 6 7 7 7 8 8 7 6 6 6 6 7 9 11 8 7 7 7 9 12 10 10 16 17 18 18 18 18 18 18 19 20 21 21
3 4 5 5 6 6 6 6 7 7 8 8 7 8 9 8 7 7 7 7 7 7 11 10 7 7 7 8 8 8 10 10 11 16 17 17 16 17 17 17 18 18 17
3 4 4 5 6 6 6 7 8 7 8 8 8 8 9 8 8 7 7 8 8 8 9 11 9 7 7 7 7 7 9 9 9 13 15 15 15 16 15 15 15 14 14
3 4 4 5 6 6 6 7 7 7 8 8 8 9 9 9 9 8 8 8 8 8 7 8 10 7 7 7 7 8 8 6 9 10 12 12 13 14 14 14 13 11 9
4 4 5 6 6 6 7 7 7 7 8 8 8 9 9 9 10 9 9 9 8 8 8 8 8 7 7 6 5 6 7 5 6 8 9 10 12 13 14 13 10 7 6
5 4 5 6 6 6 6 7 7 8 9 9 9 9 9 11 13 10 9 8 8 7 7 7 7 7 6 5 5 5 6 6 6 5 5 6 7 7 8 9 6 5 6
5 5 5 6 7 7 10 12 10 8 9 9 9 9 9 10 11 13 14 13 11 10 8 8 7 7 8 7 5 6 5 6 6 3 4 6 5 6 5 4 5 6 7
5 5 5 6 7 8 12 13 13 9 8 8 8 8 8 8 10 8 10 12 11 13 12 9 8 9 8 7 6 6 5 5 6 5 5 6 5 5 4 5 7 7 8
4 5 6 7 7 9 13 14 14 9 7 7 7 8 8 8 8 8 7 7 7 7 8 7 6 7 7 6 6 6 5 4 4 4 3 4 5 4 5 4 6 7 8
5 5 6 7 7 9 12 13 12 6 6 7 7 7 7 7 10 10 7 6 7 6 6 7 7 7 8 8 6 3 3 2 4 4 3 2 2 3 3 3 4 8 8
5 6 7 7 7 8 11 12 11 5 5 6 5 6 8 8 10 9 5 5 6 6 5 5 5 6 5 5 5 3 3 2 3 3 2 2 2 2 2 3 4 4 5
Wind_Direction
55 42 41 30 27 19 11 353 349 351 346 344 343 343 335 331 327 329 319 299 296 299 301 302 303 302 300 298 296 295 294 293 291 289 287 286 284 278 271 268 266 263 260
55 42 29 24 17 7 358 351 335 326 317 323 314 321 317 316 321 325 322 309 297 297 298 297 299 300 301 301 297 296 293 292 292 289 287 284 284 280 276 271 268 266 264
49 44 31 15 4 0 352 345 333 336 322 327 322 317 313 310 307 309 307 306 302 295 293 294 296 298 299 299 298 297 295 292 291 290 287 285 283 282 277 276 271 268 266
51 38 29 0 359 360 347 313 320 331 325 322 312 305 298 295 292 291 291 290 290 288 287 294 296 296 297 298 297 296 293 292 293 292 290 286 283 282 280 276 275 273 269
50 40 18 357 2 357 326 318 331 321 312 308 297 292 289 286 284 288 283 280 276 275 276 287 295 296 297 297 297 297 296 295 294 293 291 290 288 286 285 283 278 275 272
50 32 14 356 358 341 326 322 315 317 306 299 305 298 282 275 272 270 275 278 276 277 281 282 280 285 289 291 293 294 295 296 295 293 291 289 287 287 285 285 282 278 275
48 41 4 344 337 323 310 310 312 314 310 311 314 305 285 265 264 267 272 274 275 282 280 276 273 273 279 286 290 291 292 293 293 294 292 289 286 285 285 283 284 280 277
33 5 360 301 305 314 314 310 309 304 305 321 319 318 312 300 291 287 278 276 278 283 279 280 278 276 278 277 280 287 289 290 292 293 293 292 290 287 285 285 284 283 279
251 318 326 307 297 291 293 291 292 298 296 302 309 298 303 292 308 278 276 275 280 282 277 282 278 279 281 279 278 281 285 289 291 293 294 293 291 288 286 286 285 283 281
218 263 283 294 288 287 289 293 301 286 286 292 294 276 263 279 294 301 291 284 284 284 282 289 285 280 276 274 276 282 286 289 290 292 293 293 294 289 288 287 286 282 281
230 245 251 271 275 277 278 285 289 283 273 270 278 281 286 290 278 284 294 294 283 273 276 277 277 278 277 275 271 279 287 288 289 290 292 294 294 292 290 288 286 284 281
248 251 253 256 264 273 273 274 275 274 271 268 269 268 274 277 284 283 289 296 293 284 278 274 273 277 278 279 280 288 290 291 290 291 292 293 293 292 290 289 284 283 282
271 260 276 268 270 267 267 270 272 268 267 266 263 263 263 263 270 279 287 293 295 294 283 274 268 279 290 291 288 289 291 294 293 292 292 292 292 291 289 285 283 283 281
254 256 269 272 272 270 274 272 270 269 268 265 269 266 264 262 262 267 274 287 296 296 289 281 277 275 296 293 289 292 292 293 292 292 292 291 290 289 287 287 285 283 282
267 271 272 272 273 273 272 273 270 273 272 266 265 264 265 264 260 258 260 263 274 290 292 289 290 285 292 296 296 293 290 291 293 293 291 290 291 291 288 287 285 283 281
265 270 274 273 274 277 275 272 274 271 274 274 270 266 268 267 263 259 257 260 258 266 280 284 287 293 296 302 301 299 299 301 298 297 299 296 296 297 295 291 288 284 279
259 268 277 280 281 281 279 279 276 277 277 277 277 276 273 271 266 263 261 259 258 259 275 286 286 289 289 295 300 302 301 297 297 300 300 302 304 304 300 298 295 291 282
260 267 277 282 284 288 287 288 285 281 278 278 276 280 282 280 271 268 266 262 261 258 267 283 290 289 285 286 291 297 301 301 300 302 307 308 310 309 308 305 304 301 292
275 279 279 282 285 286 288 288 288 286 280 277 276 277 280 279 277 275 272 269 267 266 263 272 284 286 288 292 296 296 300 302 305 307 310 314 315 317 319 316 312 311 306
279 280 282 283 285 289 290 290 293 289 284 282 280 277 278 274 271 274 274 268 267 267 267 269 277 283 288 288 287 297 306 309 313 313 314 316 319 323 324 321 319 325 326
288 281 285 288 289 290 287 293 295 291 287 287 285 281 279 277 273 272 276 272 264 263 268 268 273 285 290 291 286 292 301 312 313 311 319 326 327 325 324 328 339 4 9
289 288 286 289 291 292 297 300 300 291 286 283 286 286 284 280 278 280 281 281 273 266 267 266 271 274 282 285 289 296 298 307 307 322 330 325 330 330 333 336 5 24 28
289 290 289 288 287 289 296 298 300 302 289 282 280 284 288 288 289 283 284 285 280 272 265 259 263 266 274 278 278 284 290 295 296 305 322 318 328 331 334 352 20 27 37
291 293 294 292 293 293 299 301 304 301 293 286 280 277 281 284 286 286 286 288 284 279 272 269 262 268 274 272 266 267 272 290 305 311 317 311 321 328 340 350 17 37 43
300 296 294 293 291 295 300 304 307 297 293 294 295 293 288 282 289 294 293 292 297 299 303 296 290 288 288 289 286 287 285 292 306 314 329 322 327 337 348 7 26 42 46
295 298 296 294 290 292 300 308 312 301 296 301 304 305 305 304 301 302 293 289 295 299 307 314 315 311 303 303 308 280 256 262 294 303 321 349 339 351 11 31 38 30 33
Height
1512 1513 1513 1512 1512 1512 1512 1511 1511 1510 1510 1509 1509 1508 1507 1507 1506 1505 1504 1503 1502 1501 1500 1499 1499 1498 1497 1496 1495 1494 1493 1493 1492 1491 1491 1491 1491 1490 1490 1490 1490 1490 1490
1511 1511 1511 1511 1511 1510 1510 1509 1509 1508 1507 1507 1506 1505 1504 1504 1503 1502 1501 1500 1499 1498 1496 1495 1495 1494 1493 1492 1491 1490 1489 1488 1487 1486 1486 1485 1485 1485 1485 1484 1484 1484 1484
1510 1510 1510 1510 1509 1509 1508 1507 1507 1506 1505 1504 1503 1502 1501 1500 1499 1498 1497 1496 1495 1494 1493 1491 1491 1490 1489 1487 1486 1485 1484 1483 1482 1481 1480 1480 1479 1479 1478 1478 1477 1477 1477
1508 1508 1508 1508 1507 1507 1506 1505 1504 1503 1502 1501 1500 1499 1498 1496 1495 1494 1493 1492 1491 1490 1488 1487 1486 1485 1484 1483 1482 1480 1479 1478 1476 1475 1474 1474 1473 1472 1472 1471 1471 1471 1470
1507 1507 1506 1506 1505 1505 1504 1503 1502 1501 1499 1498 1496 1495 1494 1493 1491 1490 1489 1488 1487 1486 1484 1483 1482 1481 1479 1478 1477 1475 1474 1473 1471 1470 1468 1467 1467 1466 1465 1464 1464 1463 1463
1505 1505 1504 1504 1503 1502 1501 1500 1499 1498 1497 1495 1493 1491 1490 1488 1487 1486 1485 1484 1483 1481 1480 1479 1477 1476 1474 1473 1472 1470 1469 1467 1466 1464 1463 1461 1460 1459 1458 1457 1457 1456 1456
1503 1502 1502 1501 1501 1500 1499 1498 1496 1495 1494 1493 1490 1487 1485 1484 1483 1482 1481 1480 1478 1477 1475 1474 1472 1471 1469 1467 1466 1465 1463 1461 1460 1458 1457 1455 1453 1452 1451 1450 1449 1449 1448
1500 1500 1499 1499 1498 1497 1496 1495 1494 1492 1491 1490 1489 1485 1481 1479 1478 1478 1477 1475 1474 1472 1471 1469 1468 1465 1464 1462 1460 1459 1457 1455 1454 1452 1450 1449 1447 1445 1444 1443 1442 1441 1440
1498 1497 1497 1496 1495 1494 1493 1492 1491 1489 1488 1487 1487 1486 1482 1477 1473 1471 1471 1470 1469 1468 1466 1464 1462 1460 1458 1456 1454 1452 1451 1449 1447 1446 1444 1442 1440 1438 1436 1435 1434 1434 1433
1495 1495 1494 1493 1492 1491 1490 1489 1488 1487 1485 1483 1483 1483 1482 1479 1474 1467 1465 1465 1464 1462 1461 1459 1457 1454 1452 1450 1448 1446 1444 1443 1441 1439 1437 1435 1433 1431 1429 1428 1426 1426 1425
1492 1492 1491 1490 1489 1488 1486 1485 1484 1483 1482 1480 1479 1478 1477 1475 1473 1469 1461 1458 1457 1456 1455 1453 1451 1448 1446 1444 1442 1440 1438 1436 1434 1432 1430 1428 1426 1423 1422 1420 1418 1418 1417
1488 1488 1488 1487 1485 1484 1483 1482 1480 1479 1478 1476 1475 1473 1472 1470 1468 1466 1460 1454 1451 1449 1448 1447 1445 1443 1440 1438 1436 1434 1432 1430 1428 1425 1423 1420 1418 1416 1414 1412 1410 1409 1409
1484 1484 1484 1483 1482 1480 1479 1478 1476 1474 1473 1471 1470 1468 1467 1465 1464 1462 1458 1452 1448 1443 1442 1440 1439 1437 1435 1433 1430 1427 1425 1423 1420 1418 1416 1413 1410 1408 1406 1404 1402 1401 1400
1481 1480 1480 1479 1477 1476 1475 1473 1471 1469 1468 1466 1465 1463 1461 1460 1459 1457 1455 1451 1444 1438 1436 1434 1433 1432 1430 1427 1423 1421 1418 1416 1414 1411 1409 1406 1403 1401 1398 1396 1394 1393 1392
1477 1476 1475 1474 1473 1471 1470 1468 1466 1464 1463 1461 1459 1458 1456 1454 1453 1451 1450 1448 1445 1437 1430 1428 1427 1425 1424 1421 1418 1415 1412 1410 1407 1405 1402 1399 1396 1393 1391 1389 1387 1386 1384
1473 1472 1471 1469 1468 1466 1465 1463 1461 1459 1457 1455 1454 1452 1450 1448 1447 1445 1443 1442 1440 1436 1428 1423 1422 1421 1419 1416 1414 1411 1407 1404 1401 1399 1396 1392 1390 1386 1384 1382 1379 1377 1376
1469 1467 1466 1464 1463 1461 1460 1458 1455 1454 1452 1449 1448 1446 1443 1442 1440 1438 1437 1435 1433 1431 1426 1419 1419 1417 1414 1411 1408 1406 1403 1399 1396 1393 1390 1387 1384 1381 1378 1375 1372 1370 1368
1464 1463 1461 1460 1458 1456 1454 1452 1450 1448 1446 1444 1442 1440 1437 1436 1434 1432 1431 1429 1427 1425 1423 1417 1413 1412 1410 1407 1404 1401 1398 1395 1393 1389 1386 1382 1379 1376 1373 1369 1367 1364 1361
1460 1458 1457 1455 1453 1451 1449 1447 1445 1442 1441 1439 1437 1434 1432 1430 1428 1427 1425 1423 1421 1419 1417 1414 1409 1407 1405 1403 1400 1397 1394 1391 1389 1385 1382 1378 1375 1372 1368 1365 1362 1359 1357
1455 1453 1452 1450 1448 1446 1444 1442 1440 1437 1435 1433 1431 1429 1427 1425 1423 1421 1419 1417 1416 1414 1412 1409 1405 1403 1401 1399 1396 1393 1389 1387 1384 1382 1378 1375 1371 1368 1365 1362 1359 1357 1355
1450 1449 1447 1445 1443 1441 1439 1437 1435 1432 1430 1428 1426 1424 1422 1420 1418 1416 1414 1412 1410 1408 1406 1404 1401 1398 1396 1394 1392 1390 1387 1384 1381 1379 1375 1371 1368 1365 1362 1360 1357 1355 1353
1445 1444 1442 1440 1438 1436 1434 1432 1430 1427 1425 1422 1420 1418 1416 1414 1412 1411 1409 1407 1406 1404 1401 1399 1396 1394 1392 1391 1389 1387 1384 1381 1377 1376 1373 1369 1367 1363 1361 1358 1357 1355 1353
1441 1439 1437 1435 1433 1432 1430 1427 1425 1422 1419 1417 1415 1413 1411 1409 1407 1405 1403 1401 1400 1398 1397 1396 1392 1390 1388 1387 1385 1383 1381 1379 1376 1374 1372 1367 1365 1362 1360 1358 1357 1355 1354
1436 1434 1433 1431 1429 1427 1425 1422 1420 1417 1414 1412 1410 1408 1406 1403 1402 1400 1398 1396 1394 1392 1391 1390 1389 1387 1385 1383 1382 1380 1378 1376 1373 1372 1371 1367 1363 1361 1359 1358 1357 1356 1355
1432 1430 1429 1427 1424 1422 1420 1417 1415 1412 1409 1406 1405 1403 1401 1399 1397 1396 1394 1391 1389 1387 1386 1385 1384 1382 1381 1379 1378 1377 1375 1373 1370 1369 1368 1366 1363 1360 1358 1357 1357 1357 1356
1428 1426 1424 1423 1420 1418 1415 1413 1410 1407 1405 1402 1400 1398 1397 1395 1393 1392 1390 1387 1385 1383 1382 1380 1379 1378 1376 1375 1374 1373 1372 1371 1369 1367 1366 1365 1362 1361 1359 1358 1358 1358 1357